TimeCST,TemperatureF,Dew PointF,Humidity,Sea Level PressureIn,VisibilityMPH,Wind Direction,Wind SpeedMPH,Gust SpeedMPH,PrecipitationIn,Events,Conditions,WindDirDegrees,DateUTC
12:53 AM,41.0,33.1,73,29.98,10.0,SSE,11.5,-,N/A,,Clear,150,2013-11-03 05:53:00
1:53 AM,41.0,34.0,76,29.96,10.0,SE,12.7,-,N/A,,Scattered Clouds,140,2013-11-03 06:53:00
1:53 AM,42.1,35.1,76,29.95,10.0,SSE,12.7,-,N/A,,Clear,150,2013-11-03 07:53:00
2:53 AM,43.0,35.1,74,29.92,10.0,SE,12.7,-,N/A,,Partly Cloudy,140,2013-11-03 08:53:00
3:53 AM,42.1,35.1,76,29.89,10.0,SE,13.8,-,N/A,,Clear,130,2013-11-03 09:53:00
4:53 AM,43.0,34.0,71,29.87,10.0,SE,13.8,23.0,N/A,,Clear,130,2013-11-03 10:53:00
5:53 AM,44.1,33.1,65,29.85,10.0,SE,16.1,26.5,N/A,,Partly Cloudy,130,2013-11-03 11:53:00
6:53 AM,45.0,33.1,63,29.81,10.0,SE,20.7,29.9,N/A,,Overcast,130,2013-11-03 12:53:00
7:53 AM,45.0,32.0,60,29.80,10.0,SE,21.9,27.6,N/A,,Partly Cloudy,130,2013-11-03 13:53:00
8:53 AM,46.9,30.9,54,29.78,10.0,SE,21.9,35.7,N/A,,Clear,130,2013-11-03 14:53:00
9:53 AM,48.9,30.9,50,29.75,10.0,SE,24.2,42.6,N/A,,Clear,140,2013-11-03 15:53:00
10:53 AM,50.0,30.0,46,29.72,10.0,SSE,23.0,39.1,N/A,,Clear,150,2013-11-03 16:53:00
11:53 AM,52.0,30.9,45,29.68,10.0,SSE,27.6,38.0,N/A,,Clear,160,2013-11-03 17:53:00
12:53 PM,53.1,30.9,43,29.67,10.0,SSE,24.2,48.3,N/A,,Clear,160,2013-11-03 18:53:00
1:53 PM,54.0,32.0,43,29.65,10.0,SSE,31.1,43.7,N/A,,Clear,160,2013-11-03 19:53:00
2:53 PM,54.0,33.1,45,29.66,10.0,SSE,20.7,35.7,N/A,,Clear,150,2013-11-03 20:53:00
3:53 PM,55.0,33.1,43,29.65,10.0,SSE,20.7,28.8,N/A,,Clear,160,2013-11-03 21:53:00
4:53 PM,54.0,32.0,43,29.65,10.0,SSE,18.4,25.3,N/A,,Clear,160,2013-11-03 22:53:00
5:53 PM,52.0,32.0,47,29.67,10.0,SSE,17.3,27.6,N/A,,Clear,150,2013-11-03 23:53:00
6:53 PM,52.0,33.1,49,29.67,10.0,SSE,16.1,23.0,N/A,,Clear,150,2013-11-04 00:53:00
7:53 PM,51.1,32.0,48,29.67,10.0,SSE,17.3,25.3,N/A,,Clear,150,2013-11-04 01:53:00
8:53 PM,50.0,33.1,52,29.66,10.0,SSE,20.7,31.1,N/A,,Scattered Clouds,150,2013-11-04 02:53:00
9:53 PM,50.0,32.0,50,29.67,10.0,SSE,21.9,29.9,N/A,,Mostly Cloudy,150,2013-11-04 03:53:00
10:53 PM,48.9,33.1,54,29.67,10.0,SSE,18.4,27.6,N/A,,Partly Cloudy,150,2013-11-04 04:53:00